Date,TemperatureHighF,TemperatureAvgF,TemperatureLowF,DewpointHighF,DewpointAvgF,DewpointLowF,HumidityHigh,HumidityAvg,HumidityLow,PressureMaxIn,PressureMinIn,WindSpeedMaxMPH,WindSpeedAvgMPH,GustSpeedMaxMPH,PrecipitationSumIn
2013-1-1,49.6,46.8,41.0,48.8,43.8,32.4,98,90,68,30.16,29.95,5,0,10,0.99
2013-1-2,48.0,43.7,39.3,47.5,40.5,36.2,98,89,76,30.16,29.92,9,2,20,0.08
2013-1-3,47.4,39.7,35.2,37.6,34.5,27.3,96,83,59,30.31,30.11,9,2,10,0.02
2013-1-4,44.0,38.4,31.3,25.7,21.8,16.7,69,52,33,30.14,30.05,0,0,0,0.00
2013-1-5,44.8,36.1,27.6,34.7,25.3,18.1,89,65,48,30.17,30.02,0,0,0,0.01
2013-1-6,47.7,40.5,37.0,39.4,34.9,30.1,93,81,64,30.03,29.87,0,0,0,0.00
2013-1-7,49.8,39.7,31.6,34.5,29.2,23.6,78,67,47,30.16,29.99,0,0,0,0.00
2013-1-8,48.8,41.6,33.2,39.5,33.7,27.4,81,74,66,30.21,30.10,0,0,0,0.00
2013-1-9,61.3,53.3,46.3,54.2,49.2,39.5,97,87,73,30.20,30.12,0,0,0,0.00
2013-1-10,62.6,57.1,52.3,53.8,51.6,49.6,96,82,71,30.19,30.01,0,0,0,0.01
2013-1-11,61.6,59.1,54.7,61.3,58.7,53.6,99,99,96,30.01,29.87,0,0,0,0.86
2013-1-12,69.0,62.4,59.0,64.7,60.8,57.3,100,95,81,29.92,29.82,0,0,0,0.02
2013-1-13,66.3,60.9,57.5,61.3,58.9,55.9,98,93,83,29.88,29.78,0,0,0,0.09
2013-1-14,62.2,59.9,57.2,61.9,59.5,56.6,99,99,97,29.86,29.77,0,0,0,1.42
2013-1-15,60.8,56.8,54.2,60.5,56.4,53.6,99,99,98,29.85,29.70,0,0,0,2.09
2013-1-16,61.2,55.4,52.5,61.2,55.0,52.2,100,99,98,29.76,29.67,0,0,0,0.99
2013-1-17,53.7,48.1,35.6,53.4,47.2,30.9,99,97,83,29.99,29.40,12,2,20,1.56
2013-1-18,52.3,38.8,29.6,31.3,26.9,22.4,91,66,32,30.27,30.00,3,1,6,0.01
2013-1-19,50.6,37.3,25.5,32.0,27.0,23.1,95,69,41,30.24,30.00,4,0,9,0.00
2013-1-20,57.8,47.2,33.0,37.8,30.0,23.3,77,52,37,30.00,29.84,10,3,17,0.00
2013-1-21,51.5,42.9,33.1,30.9,24.6,13.5,71,49,37,29.90,29.81,14,5,22,0.00
2013-1-22,38.8,31.0,25.4,14.5,10.2,6.9,49,42,34,30.09,29.87,13,6,20,0.00
2013-1-23,47.3,36.7,28.6,34.2,20.2,8.9,71,51,41,30.12,29.90,11,5,16,0.00
2013-1-24,48.3,42.0,32.5,37.8,21.4,5.6,72,47,23,30.17,29.83,19,8,32,0.00
2013-1-25,43.3,28.7,24.0,42.5,18.5,5.2,97,68,39,30.20,29.90,8,4,14,0.08
2013-1-26,54.2,43.4,35.0,42.7,28.1,16.6,97,59,23,30.06,29.90,7,2,11,0.00
2013-1-27,47.0,39.5,32.4,33.2,29.1,22.4,79,66,57,30.27,30.04,7,2,12,0.00
2013-1-28,48.7,43.0,38.7,45.6,37.8,29.3,96,82,66,30.20,30.06,4,0,4,0.01
2013-1-29,61.8,53.6,41.8,59.5,52.5,40.7,99,96,90,30.06,29.74,2,0,4,0.16
2013-1-30,62.6,55.9,40.6,62.3,55.1,36.1,99,97,84,29.73,29.29,17,4,19,2.28
2013-1-31,42.8,36.9,30.7,35.5,24.7,21.1,84,62,43,29.90,29.48,17,8,24,0.00
2013-2-1,39.1,31.3,21.8,28.9,13.7,4.9,72,49,29,30.16,29.82,14,6,23,0.00
2013-2-2,40.0,28.7,18.9,31.8,19.4,4.3,97,71,26,30.15,29.87,6,1,11,0.02
2013-2-3,46.7,37.4,27.5,34.6,29.2,24.7,97,74,50,29.88,29.74,13,6,21,0.27
2013-2-4,47.4,37.1,25.9,29.1,24.3,19.3,80,61,41,29.92,29.79,5,1,10,0.00
2013-2-5,58.5,46.4,33.7,45.1,37.1,25.8,90,70,48,29.79,29.70,12,4,16,0.00
2013-2-6,62.4,51.3,40.6,41.3,32.2,26.2,90,51,28,29.93,29.77,7,2,12,0.00
2013-2-7,49.1,46.1,38.8,44.2,36.4,27.6,93,71,46,29.93,29.71,8,3,11,0.12
2013-2-8,53.1,45.3,35.8,46.8,39.7,28.6,97,82,51,29.92,29.68,9,3,16,0.02
2013-2-9,59.0,43.7,26.3,28.8,24.3,19.1,83,50,22,30.06,29.88,5,1,5,0.00
2013-2-10,52.1,45.6,40.2,45.0,33.5,24.2,97,65,39,30.12,29.88,6,2,11,0.93
2013-2-11,54.8,49.7,45.8,53.6,47.3,39.3,99,91,72,29.89,29.77,7,2,9,0.44
2013-2-12,55.0,46.8,40.4,44.8,34.4,24.7,94,65,33,29.87,29.63,7,2,11,0.24
2013-2-13,46.1,41.0,34.9,44.4,37.7,29.2,97,88,75,29.71,29.50,12,4,21,0.03
2013-2-14,54.2,42.2,30.7,37.3,30.7,27.0,86,65,43,29.84,29.70,10,2,15,0.00
2013-2-15,58.8,42.9,28.9,38.5,31.9,25.9,93,68,38,29.89,29.75,14,4,18,0.00
2013-2-16,39.5,33.0,25.4,26.9,19.6,11.0,75,58,40,29.89,29.68,16,7,23,0.00
2013-2-17,38.8,29.5,22.4,14.5,10.2,5.2,60,45,30,30.07,29.89,15,5,22,0.00
2013-2-18,53.5,38.3,22.6,29.0,21.5,13.2,74,52,35,30.15,29.93,12,2,15,0.00
2013-2-19,51.1,40.6,32.0,42.6,28.4,14.2,100,66,35,29.93,29.73,15,4,26,0.23
2013-2-20,51.3,38.8,29.2,16.5,8.5,0.7,47,30,13,29.92,29.83,17,5,21,0.00
2013-2-21,59.0,43.5,27.5,37.0,20.2,6.7,84,42,22,29.98,29.77,6,2,10,0.28
2013-2-22,41.4,38.9,36.5,39.4,37.3,34.5,97,94,84,29.96,29.83,9,4,14,0.99
2013-2-23,48.8,44.0,39.6,47.5,43.3,38.8,98,97,95,29.85,29.61,5,1,7,0.54
2013-2-24,61.1,48.7,36.9,43.4,31.0,19.5,97,55,29,29.78,29.65,12,4,15,0.00
2013-2-25,49.2,42.4,34.8,34.7,27.6,19.8,93,57,45,29.84,29.67,10,4,17,0.01
2013-2-26,41.3,38.4,34.9,40.5,36.9,33.6,97,94,81,29.67,29.36,11,5,16,1.31
2013-2-27,53.2,43.2,36.4,37.6,33.6,30.6,86,70,49,29.63,29.51,14,8,19,0.00
2013-2-28,42.5,36.4,32.7,33.1,26.3,23.2,77,67,62,29.75,29.57,12,7,18,0.00
2013-3-1,38.3,34.6,31.7,28.6,26.4,23.5,78,72,66,29.75,29.69,12,6,18,0.00
2013-3-2,37.6,33.5,29.1,27.6,25.0,18.4,79,71,62,29.78,29.67,12,7,19,0.00
2013-3-3,35.3,30.0,25.3,20.9,17.1,15.1,68,59,49,29.83,29.74,14,7,22,0.00
2013-3-4,56.7,41.6,26.3,30.1,22.0,13.1,62,47,31,29.93,29.79,11,4,17,0.00
2013-3-5,53.6,43.9,35.0,51.4,37.7,26.0,97,80,58,29.84,29.43,18,3,26,0.36
2013-3-6,34.8,31.6,28.5,26.8,23.9,17.4,80,73,59,29.95,29.60,22,10,29,0.00
2013-3-7,57.1,39.7,24.5,34.5,27.3,21.5,90,64,37,30.01,29.91,9,2,13,0.00
2013-3-8,62.3,45.0,26.9,30.6,23.2,17.7,78,47,18,30.09,29.95,9,2,10,0.00
2013-3-9,59.5,48.0,33.7,34.1,27.6,20.9,65,46,32,30.10,29.98,5,1,7,0.00
2013-3-10,64.9,53.8,43.8,38.4,34.0,29.9,61,48,32,30.01,29.86,6,2,12,0.00
2013-3-11,57.1,52.7,49.9,53.4,48.6,38.8,98,86,61,29.87,29.56,10,2,13,1.16
2013-3-12,57.5,47.9,36.5,52.0,36.1,27.0,98,67,32,29.84,29.54,14,5,17,0.03
2013-3-13,48.1,41.7,31.6,29.5,24.4,17.5,64,50,37,30.00,29.82,15,8,21,0.00
2013-3-14,51.5,37.5,24.3,25.8,16.5,10.8,67,45,21,30.12,29.98,13,6,17,0.00
2013-3-15,69.4,53.1,33.9,43.4,35.8,23.6,82,54,37,29.99,29.72,17,6,28,0.00
2013-3-16,72.5,62.2,52.2,48.0,43.1,40.5,65,51,37,29.72,29.59,17,7,25,0.00
2013-3-17,69.2,61.2,51.4,53.0,46.6,41.2,77,59,48,29.72,29.64,12,6,15,0.00
2013-3-18,55.7,46.8,42.8,49.7,44.2,41.6,98,91,71,29.78,29.59,8,2,11,0.43
2013-3-19,58.1,49.3,41.6,47.6,31.6,15.2,98,56,29,29.85,29.66,18,6,19,0.01
2013-3-20,56.2,45.0,37.7,28.5,17.5,11.5,68,34,20,29.90,29.64,16,5,20,0.00
2013-3-21,41.2,34.2,25.6,27.4,13.4,6.0,66,43,29,29.75,29.63,14,8,22,0.00
2013-3-22,49.6,39.1,29.0,31.4,21.8,11.8,65,50,39,29.83,29.74,8,2,12,0.00
2013-3-23,53.2,45.1,39.3,49.0,41.5,31.0,97,88,62,29.80,29.59,5,1,10,0.33
2013-3-24,49.2,45.4,39.8,46.2,43.9,32.5,97,94,75,29.61,29.29,14,4,17,1.32
2013-3-25,39.1,33.8,30.5,31.8,24.7,20.8,76,69,61,29.80,29.41,15,10,25,0.00
2013-3-26,38.5,33.0,29.2,26.4,23.7,21.0,78,68,58,30.03,29.76,12,7,20,0.00
2013-3-27,50.1,39.3,30.3,26.6,22.5,19.0,72,53,34,30.09,29.99,14,7,21,0.00
2013-3-28,57.1,44.3,32.3,30.2,23.4,14.8,63,45,25,30.08,29.98,15,5,20,0.00
2013-3-29,60.6,45.5,31.2,36.3,28.6,21.7,76,53,33,30.12,29.96,7,1,14,0.00
2013-3-30,67.3,53.3,43.0,52.2,41.1,34.7,97,65,37,29.97,29.77,13,2,21,0.28
2013-3-31,62.8,56.3,52.2,57.3,53.6,51.6,98,91,73,29.78,29.61,11,4,24,0.73
2013-4-1,66.4,57.2,46.3,54.4,44.8,37.4,98,67,39,29.77,29.59,12,4,19,0.01
2013-4-2,61.5,51.8,42.0,37.6,28.1,18.2,66,42,24,29.91,29.76,12,5,14,0.00
2013-4-3,58.0,50.9,43.1,38.7,30.1,23.2,77,46,35,29.97,29.83,6,1,9,0.00
2013-4-4,45.0,40.6,36.4,39.6,36.3,32.2,97,85,64,29.95,29.74,10,4,14,0.30
2013-4-5,64.3,50.1,39.0,46.0,38.7,31.6,97,70,30,29.83,29.69,12,4,16,0.01
2013-4-6,68.4,55.3,38.1,41.4,35.1,31.3,77,49,31,29.95,29.83,8,2,15,0.00
2013-4-7,70.8,57.6,40.3,50.1,42.1,34.1,80,57,41,29.98,29.84,10,2,15,0.00
2013-4-8,74.6,63.0,52.2,55.6,50.0,44.7,82,63,46,29.90,29.80,12,3,17,0.00
2013-4-9,79.4,66.0,51.8,60.2,54.0,48.2,93,67,47,29.94,29.83,11,2,14,0.00
2013-4-10,81.8,67.4,54.5,60.2,55.2,51.2,90,67,42,29.87,29.67,11,2,15,0.00
2013-4-11,75.5,66.1,57.2,64.7,57.9,52.6,97,76,58,29.70,29.42,14,3,22,1.48
2013-4-12,67.5,60.9,53.6,61.5,50.0,36.1,98,71,32,29.67,29.37,17,6,20,0.38
2013-4-13,72.1,61.5,50.2,38.9,36.3,31.2,60,41,25,29.78,29.64,13,6,19,0.00
2013-4-14,62.7,55.6,47.0,52.7,42.3,33.0,96,63,41,29.83,29.70,8,2,11,0.20
2013-4-15,72.3,60.4,52.1,60.3,55.7,51.3,98,86,63,29.91,29.70,6,1,10,0.05
2013-4-16,76.4,65.3,58.6,65.5,60.0,55.6,98,84,63,30.02,29.90,6,1,9,0.00
2013-4-17,82.7,68.9,60.4,66.9,61.9,58.0,95,80,55,29.98,29.81,11,3,15,0.04
2013-4-18,77.6,66.9,59.3,64.3,60.5,58.4,98,82,57,29.85,29.66,11,3,17,0.00
2013-4-19,66.1,57.9,44.0,64.0,54.0,34.8,98,87,69,29.75,29.49,13,6,18,0.54
2013-4-20,60.9,49.5,38.2,35.1,30.2,26.2,72,49,29,30.00,29.75,14,7,21,0.01
2013-4-21,64.6,53.7,43.1,40.0,34.4,29.6,63,49,35,30.12,30.00,8,3,15,0.00
2013-4-22,67.0,54.9,44.4,47.0,39.6,36.6,74,57,36,30.10,29.91,9,3,13,0.00
2013-4-23,70.4,56.6,43.9,49.7,40.4,29.9,77,56,41,30.00,29.84,7,2,13,0.00
2013-4-24,70.3,58.8,49.3,59.9,53.5,44.6,97,83,63,29.88,29.81,14,3,19,0.09
2013-4-25,69.0,54.8,37.7,52.3,32.8,13.7,93,54,12,30.04,29.84,11,4,17,0.01
2013-4-26,70.3,57.7,41.6,48.2,35.7,25.0,78,45,32,30.14,30.01,7,2,15,0.01
2013-4-27,57.9,53.0,50.7,52.3,50.5,47.9,98,91,77,30.11,29.95,5,2,10,0.80
2013-4-28,54.2,52.3,49.9,53.6,51.7,49.3,99,98,97,29.99,29.79,7,2,9,2.61
2013-4-29,74.3,60.5,52.4,62.2,54.2,49.2,99,82,49,29.82,29.66,10,3,15,0.00
2013-4-30,77.2,62.5,46.8,62.0,53.8,44.6,98,75,48,29.86,29.71,7,1,12,0.00
2013-5-1,67.8,61.5,56.7,57.0,54.0,51.8,88,77,63,29.96,29.85,8,4,13,0.00
2013-5-2,62.6,58.6,56.6,56.7,54.0,51.9,93,85,77,29.98,29.90,8,4,15,0.00
2013-5-3,59.3,55.7,53.6,54.3,53.2,50.0,97,92,72,29.91,29.76,9,5,16,0.09
2013-5-4,55.6,50.9,47.4,52.0,48.5,44.5,97,92,73,29.76,29.63,9,6,20,1.30
2013-5-5,54.7,51.3,46.8,53.9,50.4,45.2,97,97,93,29.64,29.53,10,4,16,1.68
2013-5-6,51.2,47.4,43.4,49.9,46.4,42.6,98,96,92,29.68,29.55,6,1,9,0.07
2013-5-7,68.0,56.2,47.5,56.6,50.0,46.9,98,81,50,29.72,29.63,12,3,14,0.06
2013-5-8,74.0,61.4,48.5,58.3,53.2,46.3,96,76,50,29.81,29.68,11,3,15,0.00
2013-5-9,77.7,65.2,51.4,62.2,56.1,48.9,97,74,45,29.87,29.76,9,2,12,0.00
2013-5-10,75.3,63.7,52.3,64.1,58.0,50.9,97,83,62,29.85,29.71,14,2,18,0.12
2013-5-11,73.3,63.6,57.8,65.2,60.4,56.3,98,90,68,29.73,29.61,10,4,15,0.22
2013-5-12,65.0,57.9,49.4,55.8,42.6,33.2,88,59,33,29.86,29.66,12,6,18,0.00
2013-5-13,64.6,54.1,39.1,38.1,33.1,28.9,79,47,29,29.97,29.84,11,4,18,0.00
2013-5-14,75.5,58.0,37.3,57.1,45.5,34.4,93,66,43,30.02,29.85,11,3,17,0.00
2013-5-15,85.7,71.6,54.2,60.0,54.2,49.8,89,57,31,29.88,29.73,12,4,15,0.00
2013-5-16,79.1,70.0,61.5,63.1,58.1,52.2,91,67,52,29.82,29.71,10,2,13,0.00
2013-5-17,78.2,66.3,55.7,66.4,59.9,54.3,97,81,56,29.86,29.76,6,1,10,0.00
2013-5-18,69.1,64.4,61.6,66.2,63.3,60.8,99,96,89,29.85,29.78,5,1,7,0.40
2013-5-19,67.1,64.7,60.7,66.5,64.3,60.4,99,99,96,29.86,29.74,6,1,9,1.68
2013-5-20,82.2,67.7,55.2,74.5,65.2,54.9,100,92,73,29.85,29.75,9,2,12,0.53
2013-5-21,84.2,72.6,62.9,75.2,68.4,61.4,100,88,63,29.79,29.65,13,2,16,2.06
2013-5-22,80.7,69.5,60.7,75.2,66.4,60.1,99,90,72,29.74,29.60,10,2,14,0.02
2013-5-23,79.8,70.4,62.7,66.1,61.0,52.8,99,75,47,29.70,29.63,12,4,18,0.00
2013-5-24,71.2,63.3,51.4,53.7,48.0,39.8,79,59,39,29.97,29.70,11,5,18,0.00
2013-5-25,77.2,62.4,47.2,53.9,42.9,35.1,73,50,29,30.06,29.92,11,3,13,0.00
2013-5-26,78.7,64.0,48.4,58.1,48.6,39.3,83,59,42,30.02,29.90,9,2,12,0.00
2013-5-27,81.1,67.4,52.1,63.8,56.3,48.0,88,69,47,29.99,29.86,8,1,11,0.00
2013-5-28,81.8,70.0,60.0,65.6,61.1,57.6,94,75,52,29.95,29.87,7,1,11,0.00
2013-5-29,79.4,68.5,57.8,68.0,62.1,56.1,97,81,58,29.98,29.89,5,1,9,0.00
2013-5-30,78.9,69.3,61.7,66.1,62.9,59.3,95,81,59,30.01,29.88,4,0,9,0.00
2013-5-31,80.6,71.0,65.3,67.5,64.4,61.2,94,80,64,29.97,29.83,6,1,7,0.00
2013-6-1,79.8,70.4,63.3,70.4,66.1,62.1,97,87,69,29.86,29.75,7,1,10,0.02
2013-6-2,75.8,68.9,65.8,73.1,68.0,65.2,99,97,87,29.76,29.62,5,0,10,0.43
2013-6-3,81.5,70.6,62.0,72.4,64.8,60.8,100,84,54,29.70,29.61,7,1,10,0.00
2013-6-4,85.8,72.6,57.7,68.8,62.5,56.0,98,73,46,29.76,29.68,8,1,11,0.00
2013-6-5,80.5,71.0,63.4,71.2,66.0,62.4,98,85,70,29.80,29.64,7,1,10,1.23
2013-6-6,78.5,68.8,63.1,72.5,67.0,62.5,99,94,79,29.70,29.51,4,1,6,0.02
2013-6-7,81.5,70.3,63.9,73.1,66.8,62.4,98,89,61,29.58,29.42,12,2,18,0.35
2013-6-8,83.4,70.4,57.7,71.7,64.7,56.9,99,84,60,29.83,29.57,9,2,12,0.01
2013-6-9,82.8,71.3,65.2,73.8,68.0,63.7,98,90,69,29.85,29.75,9,1,13,0.78
2013-6-10,80.2,70.9,65.3,72.5,68.1,64.4,99,92,68,29.77,29.66,16,6,16,0.31
2013-6-11,85.4,76.5,69.0,76.0,70.4,66.7,99,83,59,29.76,29.68,13,3,15,0.27
2013-6-12,90.9,79.5,67.8,77.7,71.5,65.1,93,77,59,29.79,29.68,8,2,11,0.00
2013-6-13,87.6,77.2,67.0,76.2,69.8,64.4,97,79,60,29.70,29.46,17,4,23,0.53
2013-6-14,84.4,72.8,59.3,66.2,61.3,55.5,97,70,39,29.76,29.54,10,2,17,0.00
2013-6-15,85.5,71.9,56.9,66.9,61.0,54.6,92,71,47,29.88,29.77,6,1,10,0.00
2013-6-16,87.4,72.6,58.1,71.5,64.7,56.2,97,78,53,29.91,29.76,7,2,9,0.67
2013-6-17,84.3,72.2,66.7,75.7,69.4,66.1,99,92,73,29.81,29.68,7,2,10,0.27
2013-6-18,80.5,71.7,67.7,73.2,69.3,66.4,99,93,75,29.69,29.57,11,3,17,0.12
2013-6-19,83.6,72.0,65.0,73.0,67.2,63.5,98,86,67,29.84,29.63,4,1,5,0.00
2013-6-20,82.3,71.5,62.4,71.5,66.8,61.5,98,86,67,29.94,29.83,5,1,10,0.00
2013-6-21,84.6,71.2,63.6,71.1,64.6,60.8,94,81,53,30.00,29.90,7,1,10,0.00
2013-6-22,85.4,71.9,60.3,67.5,63.1,59.1,98,76,51,29.98,29.84,6,1,9,0.00
2013-6-23,85.8,72.9,59.0,74.4,66.6,57.6,99,82,63,29.94,29.84,6,1,10,0.00
2013-6-24,86.3,76.1,69.1,75.4,70.4,66.8,98,84,64,29.96,29.84,10,2,13,0.00
2013-6-25,83.8,73.4,65.3,74.4,69.3,63.8,97,87,68,29.90,29.76,8,1,11,0.39
2013-6-26,86.9,75.6,66.1,75.6,70.9,65.2,99,86,66,29.80,29.66,9,2,16,0.07
2013-6-27,85.8,77.1,71.2,76.5,72.0,68.1,97,85,71,29.71,29.53,14,5,20,0.01
2013-6-28,91.3,76.5,66.8,73.2,69.2,65.0,98,80,47,29.58,29.38,11,3,16,0.37
2013-6-29,85.4,74.5,63.8,73.9,65.2,61.0,98,75,46,29.46,29.40,10,2,12,0.01
2013-6-30,86.5,72.7,58.8,71.0,64.4,57.1,98,77,46,29.55,29.44,9,1,12,0.00
2013-7-1,82.3,70.6,66.0,72.1,66.9,63.5,98,89,66,29.66,29.52,10,1,12,0.20
2013-7-3,69.2,65.8,64.5,68.0,65.1,63.9,99,98,96,29.93,29.83,8,1,10,1.74
2013-7-4,73.8,67.7,64.4,73.8,67.4,64.1,100,99,96,29.94,29.86,13,2,24,0.70
2013-7-5,78.5,70.1,67.2,72.9,68.9,66.9,100,96,80,29.97,29.88,8,1,11,0.83
2013-7-6,79.4,71.4,66.8,76.0,70.2,66.5,100,96,86,29.94,29.82,6,1,11,0.52
2013-7-7,80.3,72.6,68.5,74.4,70.5,68.2,100,94,78,29.92,29.84,6,2,7,0.02
2013-7-8,85.2,75.5,68.2,77.9,71.9,67.7,99,89,72,29.92,29.84,7,1,10,0.10
2013-7-9,87.8,76.1,68.5,77.6,72.0,67.4,99,88,65,29.91,29.79,7,2,12,0.15
2013-7-10,86.7,74.3,68.0,78.6,71.6,67.7,100,92,70,29.84,29.69,10,1,11,0.02
2013-7-11,81.2,72.7,68.5,76.2,71.1,67.4,100,95,84,29.73,29.62,7,1,10,0.07
2013-7-12,86.2,73.8,67.4,77.2,70.6,66.2,100,90,69,29.70,29.62,7,1,12,0.17
2013-7-13,75.8,69.8,66.2,70.7,67.3,65.0,97,92,82,29.83,29.68,6,2,10,0.00
2013-7-14,75.8,71.0,68.5,73.3,69.9,67.5,99,96,88,29.99,29.80,7,2,12,0.32
2013-7-15,81.6,73.4,68.1,75.1,70.6,67.7,99,91,75,30.05,29.94,6,2,10,0.08
2013-7-16,89.1,77.5,68.5,77.4,71.3,67.6,99,83,59,30.06,29.97,5,-9,6,0.00
2013-7-17,93.0,75.5,66.1,78.5,69.8,63.0,99,84,55,30.02,29.86,14,1,14,0.17
2013-7-18,88.1,76.0,65.1,77.5,70.7,64.5,100,85,62,29.97,29.80,4,1,9,0.08
2013-7-19,90.2,78.7,68.4,77.7,72.3,67.5,98,82,60,29.87,29.72,6,1,10,0.02
2013-7-20,87.8,75.3,67.0,79.5,71.4,66.4,99,88,66,29.78,29.69,7,1,9,0.00
2013-7-21,88.8,74.9,66.7,78.4,71.0,65.9,99,89,63,29.77,29.66,9,2,12,0.15
2013-7-22,82.9,73.9,67.8,76.6,71.5,67.5,99,92,76,29.75,29.61,9,3,13,0.00
2013-7-23,81.9,74.0,66.8,75.3,69.8,65.3,97,87,71,29.68,29.57,13,-16,19,0.00
2013-7-24,87.5,77.1,69.3,75.6,70.7,67.8,96,81,62,29.60,29.53,5,2,7,0.00
2013-7-25,88.8,74.3,64.8,74.6,67.6,63.0,97,81,57,29.74,29.57,11,2,15,0.00
2013-7-26,82.5,73.5,66.1,74.6,69.5,64.9,98,88,73,29.83,29.71,20,2,27,1.12
2013-7-27,81.5,72.6,66.0,74.0,69.4,64.7,100,90,73,29.76,29.64,9,2,10,0.01
2013-7-28,84.4,72.7,63.1,74.3,67.2,62.2,99,84,56,29.78,29.67,9,2,13,0.00
2013-7-29,84.8,70.9,61.1,66.5,60.6,55.2,96,73,40,29.91,29.76,6,1,9,0.00
2013-7-30,90.4,73.7,56.6,73.7,64.1,51.8,98,74,51,29.96,29.86,4,1,8,0.00
2013-7-31,78.8,72.8,68.1,73.4,69.9,67.2,98,91,78,29.89,29.70,6,1,9,0.05
2013-8-1,85.7,75.0,65.8,75.1,69.4,64.9,99,84,62,29.74,29.64,9,2,12,0.52
2013-8-2,89.1,75.4,63.7,74.5,67.6,61.9,97,78,51,29.77,29.66,5,1,10,0.00
2013-8-3,84.9,73.8,62.1,73.3,67.5,60.9,99,82,62,29.79,29.74,9,2,13,0.00
2013-8-4,84.7,76.3,69.0,72.1,67.8,60.4,95,76,60,29.77,29.70,13,4,15,0.00
2013-8-5,88.4,74.4,62.6,74.9,67.1,59.5,94,79,61,29.81,29.71,6,1,7,0.00
2013-8-6,86.5,76.4,69.0,75.3,70.8,66.6,98,84,63,29.75,29.68,6,1,7,0.01
2013-8-7,79.2,73.0,69.3,75.2,71.6,68.7,99,95,86,29.80,29.73,5,1,7,1.65
2013-8-8,85.8,74.8,70.1,79.3,72.5,69.6,99,93,76,29.81,29.75,11,1,20,0.23
2013-8-9,87.1,76.8,69.0,79.9,73.5,68.4,100,90,71,29.83,29.75,8,1,9,0.09
2013-8-10,90.1,76.4,69.6,80.2,73.2,69.0,100,91,66,29.87,29.77,14,2,15,0.13
2013-8-11,89.7,75.2,66.4,80.7,72.2,65.9,100,91,69,29.90,29.81,13,2,14,0.25
2013-8-12,89.7,75.3,67.7,78.4,72.5,67.1,100,92,66,29.85,29.72,7,1,12,0.12
2013-8-13,84.9,75.5,70.4,76.3,71.6,68.9,100,88,67,29.74,29.60,7,2,11,0.07
2013-8-14,81.8,71.2,67.1,73.0,66.1,-99.9,97,88,73,29.78,29.62,3,0,9,0.06
2013-8-15,71.5,65.3,61.4,64.5,59.6,56.3,93,82,64,29.86,29.76,8,-15,12,0.00
2013-8-16,68.1,63.5,59.9,61.4,58.3,54.9,91,83,72,29.89,29.81,7,-19,13,0.00
2013-8-17,64.0,62.4,61.1,61.6,59.7,57.3,98,91,80,29.92,29.84,6,2,9,0.39
2013-8-18,71.0,65.5,62.0,68.2,64.5,61.2,98,96,85,29.97,29.88,5,-10,6,0.45
2013-8-19,72.5,67.9,64.5,69.8,66.7,63.9,99,96,90,29.93,29.83,5,1,7,1.71
2013-8-20,78.3,70.2,66.1,71.7,68.0,65.4,98,93,73,29.95,29.85,3,-25,4,0.00
2013-8-21,78.4,70.2,66.9,71.8,68.7,66.0,99,95,76,30.00,29.87,6,1,8,0.61
2013-8-22,81.1,71.2,66.9,74.8,69.5,66.6,99,95,73,29.93,29.80,9,1,10,0.05
2013-8-23,84.4,73.6,64.3,73.4,67.3,63.3,100,83,50,29.84,29.72,4,1,8,0.00
2013-8-24,77.9,69.4,63.1,69.6,65.9,62.5,98,89,71,30.02,29.79,5,1,9,0.00
2013-8-25,76.4,68.2,60.5,66.0,60.7,55.6,96,78,61,30.12,30.01,4,1,9,0.00
2013-8-26,78.7,67.0,55.9,67.9,61.7,55.3,99,85,60,30.08,29.91,4,1,12,0.00
2013-8-27,81.6,69.8,58.2,70.5,64.3,57.6,98,84,53,29.93,29.79,5,-24,9,0.00
2013-8-28,85.2,74.9,64.9,72.8,67.4,63.4,97,79,53,29.81,29.71,6,2,8,0.00
2013-8-29,86.5,78.7,69.9,73.0,69.6,66.4,92,74,60,29.73,29.66,8,3,14,0.00
2013-8-30,83.8,75.3,69.5,75.8,71.4,67.6,97,88,72,29.79,29.68,8,1,11,0.00
2013-8-31,84.1,73.6,69.3,76.1,71.2,67.5,99,93,72,29.72,29.63,11,-24,15,0.08
2013-9-1,82.7,72.6,66.5,76.1,69.9,66.2,99,92,70,29.69,29.59,9,2,11,0.27
2013-9-2,78.8,71.5,65.0,73.3,68.9,64.6,99,92,80,29.72,29.61,11,3,14,0.00
2013-9-3,85.2,74.2,66.8,71.1,67.0,62.3,99,80,49,29.73,29.61,6,1,10,0.00
2013-9-4,82.7,70.9,61.4,70.6,65.7,60.5,98,85,56,29.85,29.71,6,-30,8,0.00
2013-9-5,83.2,71.1,61.6,70.8,65.9,61.0,99,85,52,29.88,29.81,4,0,5,0.00
2013-9-6,79.7,70.0,61.6,67.7,64.2,60.4,98,83,60,29.93,29.82,5,1,12,0.00
2013-9-7,80.1,69.1,58.9,69.4,64.4,58.3,99,86,62,29.90,29.77,5,1,9,0.00
2013-9-8,83.9,73.8,64.0,72.0,64.9,60.4,96,76,46,29.77,29.68,8,1,11,0.00
2013-9-9,82.7,72.2,63.1,71.0,66.8,62.2,98,84,62,29.87,29.75,3,0,12,0.00
2013-9-10,83.2,71.4,62.5,72.9,66.9,61.7,98,87,62,29.98,29.87,5,0,5,0.00
2013-9-11,83.9,71.6,61.6,71.2,65.9,61.0,99,84,54,29.99,29.85,5,1,8,0.00
2013-9-12,83.0,71.4,63.7,71.8,67.2,62.8,98,88,62,29.86,29.65,9,1,13,0.00
2013-9-13,79.2,71.6,61.2,68.7,61.0,51.6,93,71,47,29.65,29.57,8,3,13,0.00
2013-9-14,75.2,61.6,49.6,60.0,54.1,48.5,97,78,52,29.85,29.63,7,1,11,0.00
2013-9-15,77.5,66.0,56.8,66.2,60.6,54.8,96,84,63,29.94,29.85,6,1,10,0.00
2013-9-16,82.3,70.7,61.0,69.2,60.0,47.4,98,73,32,29.90,29.81,5,2,9,0.00
2013-9-17,72.3,66.6,62.4,61.6,58.2,55.1,84,75,60,30.02,29.86,7,3,9,0.00
2013-9-18,70.1,64.0,57.6,61.1,57.4,54.2,97,79,65,30.01,29.91,4,1,9,0.00
2013-9-19,80.2,65.8,53.9,66.8,60.8,53.3,99,85,60,29.95,29.83,5,1,11,0.00
2013-9-20,80.0,68.3,57.8,67.8,62.6,57.2,99,84,56,29.85,29.69,7,1,10,0.00
2013-9-21,66.8,64.6,61.6,66.5,63.4,58.6,99,96,88,29.69,29.45,11,-50,13,0.85
2013-9-22,76.8,63.5,52.8,64.5,57.3,51.8,98,82,59,29.65,29.51,6,1,10,0.00
2013-9-23,73.7,62.9,54.9,62.0,57.5,54.1,97,84,59,29.80,29.65,6,1,9,0.00
2013-9-24,66.3,62.5,55.3,62.3,59.8,54.6,98,91,83,29.81,29.68,2,0,3,0.00
2013-9-25,62.7,61.3,59.4,61.7,60.6,58.8,99,98,94,29.68,29.60,4,1,6,1.62
2013-9-26,74.9,64.3,56.9,66.9,61.3,56.0,99,91,70,29.78,29.64,6,1,10,0.00
2013-9-27,74.3,62.8,51.2,62.8,57.8,50.9,99,85,58,29.91,29.77,4,0,7,0.00
2013-9-28,71.1,61.9,53.2,60.4,56.5,51.8,97,83,62,29.99,29.89,4,1,8,0.00
2013-9-29,68.8,59.5,49.4,59.9,54.7,48.6,98,85,64,29.93,29.81,5,1,10,0.00
2013-9-30,71.3,59.8,50.8,60.7,55.8,50.3,99,87,57,29.87,29.77,8,1,10,0.00
2013-10-1,75.3,61.5,50.7,64.1,57.5,50.2,99,88,62,29.94,29.82,5,1,11,0.00
2013-10-2,78.1,64.6,54.2,65.7,59.7,53.6,99,86,54,29.93,29.83,7,0,9,0.00
2013-10-3,78.1,66.0,58.3,66.2,61.1,57.7,99,86,55,29.91,29.83,6,1,10,0.00
2013-10-4,80.0,66.1,55.1,68.6,61.4,54.3,99,86,59,29.93,29.85,4,0,7,0.00
2013-10-5,80.5,67.0,57.0,68.5,61.9,56.4,99,85,58,29.91,29.78,4,0,7,0.00
2013-10-6,77.6,66.8,59.1,68.3,63.2,58.2,99,89,64,29.80,29.62,7,1,10,1.06
2013-10-7,69.8,63.4,57.5,64.1,58.1,51.5,99,84,53,29.72,29.56,11,3,14,0.63
2013-10-8,69.3,60.5,55.0,56.1,54.2,51.4,97,81,59,29.91,29.72,9,2,10,0.00
2013-10-9,69.9,58.6,47.9,57.6,51.4,45.9,96,79,49,29.97,29.87,4,1,6,0.00
2013-10-10,73.4,60.6,47.0,59.4,52.2,46.1,98,76,49,29.91,29.77,10,3,16,0.00
2013-10-11,76.1,61.5,50.0,60.0,53.1,49.2,98,77,41,29.81,29.72,7,1,12,0.00
2013-10-12,76.5,69.5,59.6,59.4,56.9,54.9,86,65,52,29.85,29.77,7,3,0,0.00
2013-10-13,75.8,62.5,52.2,62.4,57.3,51.4,98,84,56,29.95,29.84,4,1,7,0.00
2013-10-14,72.4,64.0,57.0,63.1,60.1,56.2,98,88,68,29.97,29.87,4,1,7,0.00
2013-10-15,63.9,60.8,56.3,59.9,57.4,54.5,96,89,79,29.92,29.82,4,1,5,0.00
2013-10-16,67.1,62.7,57.2,61.3,58.9,56.4,98,88,73,29.83,29.73,4,-208,7,0.00
2013-10-17,65.8,61.6,56.3,65.2,60.8,55.3,99,97,93,29.74,29.63,5,-104,6,0.44
2013-10-18,67.9,56.5,46.5,58.4,53.0,45.8,99,89,62,29.77,29.68,4,0,6,0.01
2013-10-19,61.8,55.0,51.0,55.6,51.9,48.4,99,90,66,29.74,29.67,6,1,10,0.00
2013-10-20,64.5,50.2,37.0,48.3,40.9,31.2,97,75,30,29.86,29.73,6,-66,9,0.00
2013-10-21,66.0,51.7,39.5,55.9,47.9,38.7,98,88,60,29.92,29.79,6,1,9,0.00
2013-10-22,68.9,58.1,52.4,56.5,51.0,45.4,99,80,45,29.80,29.60,8,2,12,0.00
2013-10-23,54.8,49.3,37.3,48.2,38.8,31.7,86,68,47,29.83,29.56,13,5,23,0.00
2013-10-24,60.0,46.1,34.8,41.5,36.8,31.7,90,72,47,29.96,29.83,8,2,16,0.00
2013-10-25,53.0,42.1,29.1,37.9,26.5,17.7,87,57,27,30.13,29.95,9,3,14,0.00
2013-10-26,55.0,41.3,27.1,37.0,31.5,25.9,96,71,44,30.12,29.92,9,2,13,0.00
2013-10-27,62.9,54.2,43.0,52.7,46.0,32.5,94,74,57,29.92,29.84,7,3,13,0.00
2013-10-28,61.7,56.0,49.6,55.6,52.9,48.6,99,90,74,30.04,29.89,6,2,9,0.21
2013-10-29,66.7,54.6,45.6,58.0,51.4,44.9,99,90,66,30.11,30.01,6,0,6,0.00
2013-10-30,74.2,60.8,53.3,60.1,55.9,52.4,99,86,56,30.07,29.92,10,2,12,0.00
2013-10-31,69.4,60.6,54.2,62.3,57.6,52.7,98,90,77,29.94,29.63,11,1,14,0.02
2013-11-1,71.3,63.4,56.3,62.8,54.2,43.8,99,75,41,29.62,29.44,13,4,22,0.43
2013-11-2,65.0,54.3,45.8,47.3,41.6,35.8,87,63,39,29.80,29.54,14,4,23,0.02
2013-11-3,60.3,47.9,35.6,41.1,37.4,33.3,96,70,38,30.09,29.80,9,1,12,0.01
2013-11-4,56.3,47.2,40.7,38.7,35.9,33.9,86,66,47,30.24,30.09,6,2,10,0.00
2013-11-5,61.1,48.9,40.4,41.2,34.2,29.8,78,59,33,30.27,30.13,6,2,9,0.00
2013-11-6,66.7,57.3,47.6,55.5,51.8,41.1,94,83,66,30.13,29.88,4,1,9,0.00
2013-11-7,61.1,53.8,42.7,57.3,45.8,30.9,97,76,44,29.95,29.79,12,4,18,0.09
2013-11-8,58.0,45.2,33.7,31.0,24.2,12.5,82,48,18,30.10,29.93,9,2,13,0.00
2013-11-9,55.8,44.7,31.5,36.7,30.7,26.4,87,60,34,30.15,30.01,6,1,9,0.00
2013-11-10,68.4,55.5,41.2,37.4,31.3,24.9,75,43,22,30.03,29.93,11,3,18,0.00
2013-11-11,42.2,40.8,38.6,34.6,33.1,32.4,80,74,68,29.99,29.95,0,0,2,0.00
2013-11-12,57.8,44.0,27.9,40.4,28.4,12.4,80,55,36,30.21,29.88,16,6,23,0.00
2013-11-13,47.6,31.3,20.4,19.8,14.5,7.1,79,52,21,30.35,30.21,11,1,14,0.00
2013-11-14,54.9,38.0,23.5,27.2,17.6,11.6,80,48,19,30.27,30.11,6,1,10,0.00
2013-11-15,48.8,43.0,29.7,48.3,37.3,19.3,98,81,50,30.11,29.95,2,0,4,0.45
2013-11-16,55.2,52.3,48.8,54.3,51.8,48.3,99,98,96,30.00,29.92,3,1,6,0.02
2013-11-17,58.6,56.7,55.2,58.5,56.0,53.6,100,97,94,29.95,29.69,3,1,6,1.27
2013-11-18,65.4,58.7,47.8,62.1,42.5,29.5,100,58,29,29.78,29.64,13,6,23,0.06
2013-11-19,56.3,46.9,37.2,34.5,29.5,24.7,73,52,33,29.96,29.76,13,2,17,0.00
2013-11-20,51.9,44.5,37.8,32.2,28.7,25.1,66,54,42,30.13,29.96,8,4,13,0.00
2013-11-21,50.0,47.8,44.8,49.5,42.8,31.9,98,84,58,30.19,30.09,7,2,9,0.07
2013-11-22,56.9,53.2,49.8,56.6,52.9,49.3,99,99,98,30.14,29.91,4,1,9,0.09
2013-11-23,57.2,49.7,36.1,56.4,42.9,25.0,99,78,53,30.00,29.86,13,5,23,0.00
2013-11-24,44.7,34.3,25.5,24.8,15.2,8.2,70,47,25,30.26,29.98,11,2,13,0.01
2013-11-25,40.6,33.1,26.2,30.6,13.7,6.2,94,46,26,30.28,30.03,5,2,13,0.13
2013-11-26,47.7,42.2,32.1,47.3,41.7,30.6,99,98,94,30.03,29.39,10,2,15,4.17
2013-11-27,44.4,32.7,22.7,42.5,26.7,16.9,93,78,64,30.02,29.36,17,8,23,0.03
2013-11-28,48.1,31.4,18.8,24.4,20.1,15.9,89,66,33,30.26,30.02,6,1,8,0.00
2013-11-29,59.8,42.3,25.3,29.9,24.2,15.7,90,52,29,30.29,30.18,6,1,10,0.00
2013-11-30,47.6,38.9,32.3,27.2,24.6,22.2,70,57,37,30.35,30.13,7,2,10,0.00
2013-12-1,56.0,43.1,33.4,37.7,32.0,25.0,82,66,38,30.13,29.78,7,2,10,0.00
2013-12-2,47.8,44.9,39.9,46.6,42.4,34.4,98,91,64,29.78,29.60,6,1,7,0.03
2013-12-3,50.4,48.7,46.8,50.1,48.4,46.3,99,99,98,29.70,29.62,3,0,5,0.11
2013-12-4,57.6,54.1,50.4,57.5,53.9,50.1,100,100,99,29.81,29.69,2,0,3,0.18
2013-12-5,65.5,61.6,57.3,65.5,61.6,57.3,100,100,100,29.84,29.73,15,3,20,0.87
2013-12-6,69.9,64.9,57.8,66.2,63.7,56.6,100,96,85,29.79,29.69,13,8,21,1.36
2013-12-7,63.0,53.3,43.4,57.4,49.9,42.4,99,89,68,30.07,29.75,7,2,9,0.02
2013-12-8,47.3,40.8,37.8,44.5,40.1,37.5,99,97,89,30.09,29.98,6,3,10,0.69
2013-12-9,49.2,43.7,37.7,48.9,43.5,37.4,100,99,99,30.01,29.78,6,1,9,1.53
2013-12-10,50.1,42.5,27.3,49.3,36.9,19.2,100,81,53,30.11,29.70,17,5,26,0.24
2013-12-11,51.2,37.0,22.9,29.0,21.1,13.7,91,57,28,30.24,30.10,6,1,9,0.00
2013-12-12,45.9,37.0,27.8,21.1,10.3,-2.5,62,35,14,30.19,30.08,12,3,17,0.00
2013-12-13,49.2,37.5,24.8,28.9,18.1,11.3,75,47,27,30.15,29.97,4,0,6,0.00
2013-12-14,46.7,43.7,39.3,46.2,38.5,22.8,99,84,48,29.98,29.58,6,1,12,1.23
2013-12-15,46.5,37.0,28.0,46.2,32.8,25.4,99,85,74,29.95,29.57,14,6,17,0.02
2013-12-16,54.3,40.0,26.9,32.0,27.6,23.6,93,65,31,30.00,29.91,10,3,20,0.00
2013-12-17,57.4,48.1,37.1,35.5,31.5,25.0,72,53,38,29.96,29.81,16,7,24,0.00
2013-12-18,51.6,40.3,30.6,25.4,11.8,-0.4,55,34,14,30.08,29.90,15,4,20,0.00
2013-12-19,60.5,44.1,30.7,26.0,16.7,5.9,57,35,13,30.11,29.98,7,1,11,0.00
2013-12-20,57.4,48.2,35.7,47.1,36.8,25.6,81,65,48,30.02,29.90,6,0,10,0.00
2013-12-21,61.7,56.7,52.1,61.4,55.1,46.4,99,94,80,29.90,29.71,7,1,10,0.24
2013-12-22,63.3,58.0,54.6,63.0,57.7,54.4,100,99,97,29.83,29.66,9,2,12,4.36
2013-12-23,54.6,47.6,36.4,54.6,44.5,29.1,100,89,73,29.97,29.77,11,4,15,0.02
2013-12-24,36.8,31.4,23.6,29.4,21.8,14.6,84,68,46,30.18,29.96,13,4,20,0.00
2013-12-25,39.4,29.3,20.5,23.7,19.4,16.6,90,68,42,30.29,30.14,5,1,9,0.00
2013-12-26,52.2,36.8,24.0,29.8,22.7,17.4,88,60,28,30.16,30.04,7,1,11,0.00
2013-12-27,50.3,37.5,27.2,25.8,23.2,17.7,86,59,33,30.25,30.10,5,1,7,0.00
2013-12-28,43.8,36.2,27.7,40.0,31.3,24.0,97,83,56,30.19,29.78,9,2,13,0.58
2013-12-29,52.8,45.0,39.3,46.6,41.1,35.6,99,87,70,29.79,29.62,12,4,19,0.35
2013-12-30,48.9,44.3,41.1,40.8,37.9,35.0,86,78,70,29.94,29.75,11,4,14,0.00
2013-12-31,45.0,37.7,30.7,36.2,24.3,13.2,82,60,31,30.14,29.91,15,3,20,0.00
2014-1-1,47.0,37.5,28.4,34.0,27.2,21.4,85,67,48,30.16,29.92,4,0,6,0.00
2014-1-2,46.7,37.2,21.3,45.2,33.3,13.4,98,86,68,29.91,29.51,18,5,27,0.32